sat.trackr.live / text

‹ back to catalog

STARLINK-4396

NORAD 53637 · 2022-104BB

PAYLOAD ACTIVE UNKNOWN

§ Identity

Operator
Country
US
Launch date
2022-08-28
Launch site
AFETR
Launch vehicle
Mass (kg)
RCS (m²)

Purposes: comms

External: N2YO · Heavens-Above · Gunter

§ Orbital elements

Epoch: 2026-05-24T16:10:48.688032Z

Period
95.44 min
Inclination
53.2156°
Eccentricity
0.0001533
Mean motion
15.08841314 rev/d
Perigee alt
538.7 km
Apogee alt
540.8 km
Semi-major
6,917.9 km
B*
8.9852e-5
RAAN
243.1936°
Arg perigee
83.9072°
Mean anomaly
276.2094°
Rev number
20,769

§ Raw data

STARLINK-43961 53637U 22104BB  26144.67417463  .00001142  00000+0  89852-4 0  99912 53637  53.2156 243.1936 0001533  83.9072 276.2094 15.08841314207696

JSON: /api/v1/satellites/53637 · /tle

For live sub-satellite position, see the globe view (requires WebGL).

§ Visibility from observer

Set your observer location to see the next 7 days of passes ≥ 10°. The values pass through the URL so the page stays shareable.

No JS? Fill the form by hand. The geolocation button needs JavaScript.